Location: Nebula Knoll Observatory
(43.6666°N, 71.0000°W)
Time: 22:18:18
(UTC-04:00)

Cosmos 1782 - Visible Passes

Search period start: 23 July 2014 00:00
Search period end: 02 August 2014 00:00
Orbit: 550 x 566 km, 82.5° (Epoch: 23 July)

Date Brightness Start Highest point End Pass type
(mag) Time Alt. Az. Time Alt. Az. Time Alt. Az.
23 Jul 5.4 21:43:08 10° NW 21:46:04 19° W 21:48:59 10° SW visible
24 Jul 5.6 21:41:30 10° NW 21:44:08 17° W 21:46:45 10° SW visible
25 Jul 5.7 21:39:56 10° NW 21:42:11 15° W 21:44:26 10° WSW visible
26 Jul 5.9 21:38:30 10° WNW 21:40:15 13° W 21:41:59 10° WSW visible
27 Jul 6.1 21:37:22 10° WNW 21:38:18 11° W 21:39:13 10° W visible
